Homer, AK

3:32 PM AKDT on July 25, 2017 (GMT -0800)
Homer

Weather History for PAHO - August, 2012

Change the Weather History Date:

Thursday, August 16, 2012

  Actual Average Record
Temperature  
Mean Temperature 52 °F -  
Max Temperature 59 °F 60 °F 77 °F (2004)
Min Temperature 48 °F 45 °F 34 °F (1943)
Degree Days  
Heating Degree Days 12    
Growing Degree Days 2 (Base 50)    
Moisture  
Dew Point 45 °F    
Average Humidity 75    
Maximum Humidity 90    
Minimum Humidity 57    
Precipitation  
Precipitation 0.00 in - - ()
Sea Level Pressure  
Sea Level Pressure 30.05 in    
Wind  
Wind Speed 1 mph (NE)    
Max Wind Speed 6 mph    
Max Gust Speed -    
Visibility 10 miles    
Events Rain    
Averages and records for this station are not official NWS values.
T = Trace of Precipitation, MM = Missing Value Source: NWS Daily Summary

Daily Weather History Graph

Daily Weather History Graph

Search for Another Location

Airport or City:

Trip Planner

Search our weather history database for the weather conditions in past years. The results will help you decide how hot, cold, wet, or windy it might be!

Date:

Astronomy

Aug. 16, 2012 Rise Set
Actual Time 6:25 AM AKDT 9:52 PM AKDT
Civil Twilight 5:36 AM AKDT 10:41 PM AKDT
Nautical Twilight 4:24 AM AKDT 11:52 PM AKDT
Astronomical Twilight 2:42 AM AKDT 1:37 AM AKDT
Moon 5:38 AM AKDT (8/16) 8:54 PM AKDT (8/16)
Length of Visible Light 17h 05m
Length of Day
15h 26m
Waning Crescent, 1% of the Moon is Illuminated
Aug 16
Waning Crescent
Aug 17
New
Aug 24
First Quarter
Aug 31
Full
Sep 8
Last Quarter

Hourly Weather History & Observations

Time (AKDT) Temp. Dew Point Humidity Pressure Visibility Wind Dir Wind Speed Gust Speed Precip Events Conditions
12:53 AM 52.0 °F 48.0 °F 86% 30.10 in 10.0 mi Calm Calm - N/A   Overcast
1:53 AM 52.0 °F 48.0 °F 86% 30.10 in 10.0 mi Calm Calm - N/A   Overcast
2:53 AM 51.1 °F 46.9 °F 86% 30.10 in 10.0 mi WNW 3.5 mph - N/A   Overcast
3:53 AM 50.0 °F 46.0 °F 86% 30.09 in 10.0 mi Calm Calm - N/A   Overcast
4:53 AM 50.0 °F 45.0 °F 83% 30.08 in 10.0 mi Calm Calm - N/A   Overcast
5:53 AM 50.0 °F 45.0 °F 83% 30.07 in 10.0 mi Calm Calm - N/A   Overcast
6:53 AM 48.9 °F 46.0 °F 90% 30.07 in 10.0 mi Calm Calm - N/A   Overcast
7:53 AM 50.0 °F 46.0 °F 86% 30.06 in 10.0 mi Calm Calm - N/A   Overcast
8:53 AM 51.1 °F 48.0 °F 89% 30.06 in 10.0 mi NNE 3.5 mph - N/A   Overcast
9:53 AM 53.1 °F 46.9 °F 80% 30.06 in 10.0 mi Calm Calm - N/A   Overcast
10:53 AM 51.1 °F 46.9 °F 86% 30.06 in 10.0 mi Calm Calm - N/A   Overcast
11:53 AM 54.0 °F 46.0 °F 75% 30.06 in 10.0 mi ENE 4.6 mph - N/A   Overcast
12:53 PM 55.0 °F 46.0 °F 72% 30.06 in 10.0 mi ENE 5.8 mph - N/A   Overcast
1:53 PM 55.0 °F 45.0 °F 69% 30.05 in 10.0 mi ENE 3.5 mph - N/A   Overcast
2:53 PM 55.0 °F 45.0 °F 69% 30.05 in 10.0 mi ENE 4.6 mph - 0.00 in Rain Light Rain
3:53 PM 57.9 °F 43.0 °F 58% 30.04 in 10.0 mi East 4.6 mph - 0.00 in   Mostly Cloudy
4:53 PM 57.0 °F 42.1 °F 57% 30.03 in 10.0 mi Calm Calm - N/A   Overcast
5:53 PM 55.9 °F 43.0 °F 62% 30.02 in 10.0 mi Calm Calm - N/A   Overcast
6:53 PM 55.9 °F 43.0 °F 62% 30.00 in 10.0 mi Calm Calm - N/A   Clear
7:53 PM 55.9 °F 42.1 °F 60% 29.99 in 10.0 mi Calm Calm - N/A   Clear
8:53 PM 55.0 °F 41.0 °F 59% 29.98 in 10.0 mi Calm Calm - N/A   Clear
9:53 PM 54.0 °F 45.0 °F 72% 29.99 in 10.0 mi Calm Calm - N/A   Clear
10:53 PM 53.1 °F 44.1 °F 71% 29.99 in 10.0 mi Calm Calm - N/A   Mostly Cloudy
11:53 PM 51.1 °F 45.0 °F 80% 29.99 in 10.0 mi Calm Calm - N/A   Overcast